Location: Unspecified
(0.0000°N, 0.0000°E)
Time: 01:13:07
(UTC+00:00)

deb Kosmos-1275 - Pass Details

Date: 15 March 2026
Orbit: 924 x 993 km, 82.9° (Epoch: 14 April)

Event Time Altitude Azimuth Distance (km) Brightness Sun altitude
Rises 04:54:38 0° 153° (SSE) 3,627 ? -18.6°
Reaches altitude 10° 04:58:01 10° 134° (SE) 2,666 ? -17.7°
Maximum altitude 05:01:58 18° 93° (E) 2,130 ? -16.7°
Drops below altitude 10° 05:05:51 10° 53° (NE) 2,633 ? -15.8°
Sets 05:09:08 0° 34° (NE) 3,565 ? -15.0°
